Regional Weather Roundup
Issued by NWS

Home | Current Version | Previous Version | Text Only | Print | Product List | Glossary Off
Versions: 1 2 3 4 5 6 7 8 9 10 11 12 13 14 15 16 17 18 19 20 21 22 23 24 25 26 27 28 29 30 31 32 33 34 35 36 37 38 39 40 41 42 43 44 45 46 47 48 49 50

000
ASUS45 KTFX 210404
RWRMT
MONTANA HOURLY WEATHER ROUNDUP
NATIONAL WEATHER SERVICE GREAT FALLS MT
1004 PM MDT MON OCT 20 2014

NOTE: "FAIR" INDICATES FEW OR NO CLOUDS BELOW 12000 FEET WITH NO
SIGNIFICANT WEATHER AND/OR OBSTRUCTIONS TO VISIBILITY.

* THESE STATIONS ARE NOT UNDER NWS QUALITY CONTROL. THEY DO NOT
   REPORT WEATHER SUCH AS PRECIPITATION OR FOG.

MTZ001>007-043-210500-
WEST OF THE DIVIDE
CITY           SKY/WX    TMP DP  RH WIND       PRES   REMARKS
KALISPELL      MOCLDY    45  39  80 CALM      29.70F
MISSOULA       PTCLDY    52  39  61 CALM      29.72S
BUTTE          CLEAR     57  30  36 S7        29.86S
MULLAN PASS    MOCLDY    45  36  71 NW7       29.83S
* ESSEX        N/A       46  37  71 E3         N/A
* LINCOLN      N/A       47  34  61 NW2        N/A
* POLSON       N/A       55  32  42 SE1        N/A
* RONAN APT    PTCLDY    45  37  74 N/A        N/A
* SEELEY LAKE  N/A       48  38  68 N/A        N/A
* THOMP F APT  PTCLDY    56  33  42 SE7G17     N/A
$$

MTZ008-052>055-210500-
SOUTHWEST MONTANA
CITY           SKY/WX    TMP DP  RH WIND       PRES   REMARKS
BOZEMAN        CLEAR     54  36  51 SE14      29.84S
DILLON         CLEAR     63  34  34 S12       29.85S
W YELLOWSTONE  CLEAR     37  32  82 N5        30.01S WCI  33
* THREE FORKS  CLEAR     57  39  51 N/A        N/A
* BOULDER HILL N/A       59  30  33 SW14       N/A
* MONIDA PASS  N/A       48  32  54 SE5        N/A
* RAYNOLDS PAS N/A       49  31  50 S9G14      N/A
* WHITEHALL    N/A       61  31  32 NE4G12     N/A
* WISE RIVER   N/A       50  30  46 E3         N/A
$$

MTZ009>010-012-014-046-048-049-054-210500-
EAST SLOPES AND CENTRAL MONTANA
CITY           SKY/WX    TMP DP  RH WIND       PRES   REMARKS
CUT BANK       CLEAR     54  28  37 S5        29.71F
GREAT FALLS    CLEAR     66  34  31 S14       29.71F
HELENA         CLEAR     68  34  28 VRB7G25   29.75R
MALMSTROM AFB  CLEAR     54  34  47 VRB1      29.72F
* CONRAD       PTCLDY    43  32  65 N/A        N/A
* DEARBORN     N/A       52  37  57 S2         N/A
* EAST GLACIER N/A       55  29  37 W4         N/A
* MONARCH      N/A       51  28  41 S6         N/A
* PENDROY      N/A       49  28  44 W4         N/A
* ROGERS PASS  N/A       55  33  43 NW2        N/A
* SAINT MARY   N/A       55  32  42 S5         N/A
* SWEET GRASS  N/A       64  27  25 SW11G17    N/A
$$

MTZ011-013-016-021-035-040-045-047-050-051-210500-
NORTH CENTRAL MONTANA
CITY           SKY/WX    TMP DP  RH WIND       PRES   REMARKS
HAVRE          CLEAR     48  45  89 E3        29.69F
LEWISTOWN      CLEAR     52  34  50 E9        29.80F
* CHINOOK      CLEAR     55  43  64 E5        29.70S
* FORT BENTON  CLEAR     59  34  39 CALM      29.69F
* CHESTER      N/A       46  25  44 NE3        N/A
* DENTON       N/A       52  35  52 S13        N/A
* GEYSER       N/A       55  35  47 SE11       N/A
* JUDITH GAP   N/A       52  35  52 S5         N/A
* LOMA         N/A       53  34  49 NE10       N/A
$$

MTZ017>020-022>027-061-062-210500-
NORTHEAST MONTANA
CITY           SKY/WX    TMP DP  RH WIND       PRES   REMARKS
GLASGOW        CLEAR     52  37  57 SE13      29.74F
GLENDIVE       CLEAR     54  39  57 SW7       29.83R
JORDAN         CLEAR     55  34  45 CALM      29.77F
SIDNEY         CLEAR     50  39  66 CALM      29.82S
WOLF POINT     CLEAR     46  39  77 CALM      29.77S
* BEAVER HILL  N/A       58  42  55 SE15G20    N/A
* CIRCLE       N/A       57  39  51 N/A        N/A
* LINDSAY DVD  N/A       54  38  55 E1         N/A
* NAVAJO       N/A       54  40  59 S8         N/A
$$

MTZ028>042-056>058-210500-
SOUTHCENTRAL AND SOUTHEAST MONTANA
CITY           SKY/WX    TMP DP  RH WIND       PRES   REMARKS
BAKER          CLEAR     48  39  71 SE6       29.86S
BILLINGS       CLEAR     63  28  27 SW8       29.81F
LIVINGSTON     CLEAR     66  34  31 W13       29.85F
MILES CITY     CLEAR     57  39  51 SE9       29.80S
* LAUREL APT   CLEAR     57  27  32 N/A        N/A
* ROUNDUP APT  CLEAR     63  32  31 N/A        N/A
* ALZADA       N/A       53  45  74 E4         N/A
* HYSHAM       N/A       70  27  20 SE9        N/A
* LAME DEER    N/A       64  35  34 E6         N/A
* REED POINT   N/A       49  33  54 N/A        N/A
* ROSCOE HILL  N/A       63  25  24 SW4        N/A
$$

REGIONAL REPORTS...DAKOTAS
CITY           SKY/WX    TMP DP  RH WIND       PRES   REMARKS
WILLISTON      CLEAR     61  43  52 S6        29.81F
DICKINSON      CLEAR     52  39  61 SE13      29.85F
BEACH          N/A       50  41  71 SE5       29.85F
CROSBY         CLEAR     57  41  55 S14G20    29.81R
TIOGA          CLEAR     54  41  62 S16       29.86F
BISMARCK       CLEAR     54  34  47 SE9       29.94F
GRAND FORKS    CLEAR     45  37  74 SE7       30.04R
FARGO          CLEAR     46  37  71 E8        30.04R
BUFFALO SD     CLEAR     55  43  64 E3        29.81F
RAPID CITY     CLEAR     57  43  60 SE6       29.90S
$$

REGIONAL REPORTS...WYOMING/IDAHO/WASHINGTON
CITY           SKY/WX    TMP DP  RH WIND       PRES   REMARKS
GILLETTE       CLEAR     61  32  34 S12       29.89F
SHERIDAN       CLEAR     45  30  56 CALM      29.86F
CODY           PTCLDY    54  28  37 CALM      29.92S
YELLOWSTONE LA PTCLDY    36  30  79 NW3       30.11F
SALMON         PTCLDY    50  36  59 CALM      29.76F
MULLAN PASS    MOCLDY    45  36  71 NW7       29.83S
SAND POINT     MOCLDY    45  45 100 CALM      29.73R
SPOKANE        CLOUDY    55  48  77 W16       29.78R

$$




USA.gov is the U.S. government's official web portal to all federal, state and local government web resources and services.